カタログに戻る

STARLINK-4008

運用中通信VLEO
NORAD 52622·PAYLOAD·🇺🇸 United States

打ち上げ May 14, 2022 から Cape Canaveral Space Force Station

Loading…

次のパス (今後24時間)

TLE

最新Source: CelesTrak SupGP

元期: Sep 15, 2026, 02:37 UTC

1 52622C 22052AA  26258.10951389  .00025087  00000+0  71780-3 0  2582
2 52622  53.1563 141.6250 0001303  85.0261 224.8495 15.35384566    11

AllMySatでSTARLINK-4008をリアルタイム追跡

Download on the App Store